Weather History for MNMG - February, 2014

Change the Weather History Date:

Wednesday, February 26, 2014

  Actual Average Record
Temperature  
Mean Temperature 80 °F -  
Max Temperature 91 °F 91 °F 95 °F (2004)
Min Temperature 69 °F 70 °F 66 °F (2004)
Cooling Degree Days 15    
Growing Degree Days 30 (Base 50)    
Moisture  
Dew Point 64 °F    
Average Humidity 60    
Maximum Humidity 88    
Minimum Humidity 36    
Precipitation  
Precipitation 0.00 in - - ()
Sea Level Pressure  
Sea Level Pressure 29.81 in    
Wind  
Wind Speed 7 mph ()    
Max Wind Speed 16 mph    
Max Gust Speed -    
Visibility 6.2 miles    
Events      
Averages and records for this station are not official NWS values.
T = Trace of Precipitation, MM = Missing Value Source: Averaged Metar Reports

Daily Weather History Graph

Daily Weather History Graph

Search for Another Location

Airport or City:

Trip Planner

Search our weather history database for the weather conditions in past years. The results will help you decide how hot, cold, wet, or windy it might be!

Date:

Astronomy

Feb. 26, 2014 Rise Set
Actual Time 6:01 AM CST 5:53 PM CST
Civil Twilight 5:40 AM CST 6:14 PM CST
Nautical Twilight 5:15 AM CST 6:39 PM CST
Astronomical Twilight 4:50 AM CST 7:04 PM CST
Moon 3:25 AM CST (2/26) 3:25 PM CST (2/26)
Length of Visible Light 12h 34m
Length of Day
11h 52m
Waning Crescent, 10% of the Moon is Illuminated
Feb 26
Waning Crescent
Mar 1
New
Mar 8
First Quarter
Mar 16
Full
Mar 23
Last Quarter

Hourly Weather History & Observations

Time (CST) Temp. Heat Index Dew Point Humidity Pressure Visibility Wind Dir Wind Speed Gust Speed Precip Events Conditions
12:00 AM 75.2 °F - 64.4 °F 69% 29.86 in - ESE 6.9 mph - N/A   Clear
1:00 AM 73.4 °F - 66.2 °F 78% 29.86 in - ESE 6.9 mph - N/A   Clear
3:00 AM 71.6 °F - 68.0 °F 88% 29.83 in - North - - N/A   Partly Cloudy
4:00 AM 71.6 °F - 68.0 °F 88% 29.83 in 6.2 mi ESE 4.6 mph - N/A   Partly Cloudy
5:00 AM 71.6 °F - 68.0 °F 88% 29.83 in 6.2 mi Calm Calm - N/A   Partly Cloudy
6:00 AM 69.8 °F - 66.2 °F 88% 29.86 in 6.2 mi Calm Calm - N/A   Partly Cloudy
7:00 AM 71.6 °F - 68.0 °F 88% 29.89 in 6.2 mi Calm Calm - N/A   Partly Cloudy
8:00 AM 78.8 °F - 66.2 °F 65% 29.89 in 6.2 mi East 11.5 mph - N/A   Partly Cloudy
9:00 AM 82.4 °F 83.9 °F 64.4 °F 54% 29.89 in 6.2 mi ENE 11.5 mph - N/A   Partly Cloudy
10:00 AM 86.0 °F 86.6 °F 62.6 °F 45% 29.89 in 6.2 mi East 13.8 mph - N/A   Partly Cloudy
11:00 AM 87.8 °F 88.5 °F 62.6 °F 43% 29.86 in 6.2 mi East 16.1 mph - N/A   Partly Cloudy
12:00 PM 89.6 °F 89.5 °F 60.8 °F 38% 29.83 in 6.2 mi East 13.8 mph - N/A   Partly Cloudy
1:00 PM 91.4 °F 91.4 °F 60.8 °F 36% 29.80 in 6.2 mi ESE 16.1 mph - N/A   Partly Cloudy
2:00 PM 91.4 °F 91.4 °F 60.8 °F 36% 29.74 in 6.2 mi ESE 13.8 mph - N/A   Partly Cloudy
3:00 PM 91.4 °F 91.4 °F 60.8 °F 36% 29.71 in 6.2 mi ESE 16.1 mph - N/A   Partly Cloudy
4:00 PM 91.4 °F 91.4 °F 60.8 °F 36% 29.71 in 6.2 mi ESE 16.1 mph - N/A   Partly Cloudy
5:00 PM 89.6 °F 89.5 °F 60.8 °F 38% 29.71 in 6.2 mi ESE 13.8 mph - N/A   Partly Cloudy
6:00 PM 86.0 °F 86.6 °F 62.6 °F 45% 29.74 in 6.2 mi ESE 11.5 mph - N/A   Partly Cloudy
7:00 PM 82.4 °F 83.4 °F 62.6 °F 51% 29.74 in 6.2 mi ESE 6.9 mph - N/A   Partly Cloudy
8:00 PM 80.6 °F 82.3 °F 64.4 °F 58% 29.77 in 6.2 mi ESE 6.9 mph - N/A   Partly Cloudy
9:00 PM 78.8 °F - 66.2 °F 65% 29.80 in 6.2 mi Calm Calm - N/A   Partly Cloudy
10:00 PM 77.0 °F - 66.2 °F 69% 29.80 in 6.2 mi SSE 4.6 mph - N/A   Partly Cloudy
11:00 PM 77.0 °F - 68.0 °F 74% 29.83 in 6.2 mi SE 4.6 mph - N/A   Partly Cloudy